GW0203 Weather Reports


Display with metric or nautical units.
time (UTC)temp
F
wind
direction
speed
MPH
gust
MPH
rain 1hr
in
rain 24hr
in
rain mn
in
humidity
%
barometer
mb
20260831205024 77 41 0.0 3.0 0.00 0.02 0.02 67 1017.9
20260831203522 76 185 0.0 3.0 0.00 0.02 0.02 67 1017.9
20260831202021 80 126 0.0 2.0 0.00 0.02 0.02 59 1017.8
20260831200517 82 135 0.0 3.0 0.00 0.02 0.02 56 1018.0
20260831195013 79 174 0.0 3.0 0.00 0.02 0.02 63 1017.9
20260831193509 81 156 0.0 4.0 0.00 0.02 0.02 59 1018.0
20260831192006 79 114 0.0 5.0 0.00 0.02 0.02 59 1018.1
20260831190506 82 135 2.0 2.0 0.00 0.02 0.02 55 1018.1
20260831185000 84 173 0.0 3.0 0.00 0.02 0.02 49 1018.1
20260831183455 87 195 0.0 3.0 0.00 0.02 0.02 48 1018.7
20260831181951 84 279 0.0 2.0 0.00 0.02 0.02 50 1018.5
20260831180447 86 190 0.0 4.0 0.00 0.02 0.02 49 1018.5
20260831174944 85 23 0.0 3.0 0.00 0.02 0.02 50 1018.7
20260831173443 88 151 0.0 4.0 0.00 0.02 0.02 48 1018.9
20260831171941 84 157 0.0 3.0 0.00 0.02 0.02 51 1018.8
20260831170441 82 174 0.0 3.0 0.00 0.02 0.02 55 1019.2
20260831164936 84 61 0.0 3.0 0.00 0.02 0.02 52 1019.0
20260831163434 83 145 0.0 3.0 0.00 0.02 0.02 56 1019.0
20260831161932 83 166 1.0 4.0 0.00 0.02 0.02 56 1019.1
20260831160430 83 90 2.0 8.0 0.00 0.02 0.02 55 1019.5
20260831154926 83 153 4.0 5.0 0.00 0.02 0.02 55 1019.5
20260831153422 81 220 0.0 6.0 0.00 0.02 0.02 60 1019.8
20260831151921 80 139 0.0 4.0 0.00 0.02 0.02 66 1019.7
20260831150416 78 180 0.0 3.0 0.00 0.02 0.02 68 1019.5
20260831144913 77 105 3.0 5.0 0.00 0.02 0.02 72 1019.7
20260831143410 75 102 2.0 7.0 0.00 0.02 0.02 74 1019.5
20260831141907 74 352 0.0 6.0 0.00 0.02 0.02 75 1019.4
20260831140403 73 145 0.0 2.0 0.00 0.02 0.02 82 1019.3
20260831134903 73 69 1.0 6.0 0.00 0.02 0.02 79 1019.3
20260831133359 71 188 0.0 7.0 0.00 0.02 0.02 84 1019.1
20260831131855 70 90 2.0 5.0 0.00 0.02 0.02 89 1018.9
20260831130353 69 29 1.0 6.0 0.00 0.02 0.02 90 1019.0
20260831124848 68 43 4.0 5.0 0.00 0.02 0.02 91 1019.2
20260831123343 68 96 3.0 5.0 0.00 0.02 0.02 94 1019.1
20260831121840 67 6 1.0 3.0 0.00 0.02 0.02 96 1019.0
20260831120337 67 59 0.0 2.0 0.00 0.02 0.02 97 1018.9
20260831114834 67 20 0.0 3.0 0.00 0.02 0.02 99 1018.8
20260831113329 65 49 0.0 2.0 0.00 0.02 0.02 99 1018.9
20260831111825 64 52 0.0 2.0 0.00 0.02 0.02 99 1018.5
20260831110323 63 59 0.0 3.0 0.00 0.02 0.02 99 1018.6
20260831104818 63 23 0.0 2.0 0.00 0.02 0.02 99 1018.3
20260831103316 63 99 0.0 3.0 0.00 0.02 0.02 99 1018.0
20260831101813 63 66 0.0 3.0 0.00 0.02 0.02 99 1018.1
20260831100312 63 90 2.0 4.0 0.00 0.02 0.02 99 1017.6
20260831094812 63 340 0.0 3.0 0.00 0.02 0.02 99 1017.2
20260831093309 63 13 3.0 6.0 0.00 0.02 0.02 99 1017.3
20260831091808 64 0 1.0 5.0 0.00 0.02 0.02 99 1016.9
20260831090306 64 0 1.0 4.0 0.00 0.02 0.02 99 1017.0
20260831084803 64 354 0.0 2.0 0.00 0.02 0.02 99 1017.0
20260831083302 65 35 0.0 4.0 0.00 0.02 0.02 99 1016.9
20260831081758 65 234 1.0 5.0 0.00 0.02 0.02 99 1016.7
20260831080254 65 131 2.0 4.0 0.00 0.02 0.02 99 1016.7
20260831074752 65 0 0.0 5.0 0.00 0.02 0.02 99 1016.7
20260831073251 65 0 4.0 5.0 0.02 0.02 0.02 99 1016.5
20260831071749 66 343 3.0 5.0 0.00 0.01 0.01 99 1016.4
20260831070249 66 345 0.0 7.0 0.00 0.01 0.01 99 1016.3
20260831064748 66 123 0.0 3.0 0.00 0.01 0.01 99 1016.4
20260831063245 67 330 5.0 5.0 0.00 0.01 0.01 99 1016.2
20260831061744 67 309 2.0 4.0 0.00 0.01 0.01 99 1016.3
20260831060241 68 336 5.0 5.0 0.00 0.01 0.01 99 1016.0
20260831054736 68 305 2.0 4.0 0.00 0.01 0.01 99 1016.0
20260831053235 68 300 1.0 2.0 0.00 0.01 0.01 99 1016.1
20260831051732 68 297 1.0 3.0 0.00 0.01 0.01 99 1016.1
20260831050231 68 331 0.0 2.0 0.00 0.01 0.01 99 1015.7
20260831044727 68 180 0.0 2.0 0.00 0.01 0.01 99 1016.0
20260831043225 68 0 0.0 1.0 0.00 0.01 0.01 99 1015.8
20260831041720 69 350 0.0 2.0 0.00 0.01 0.01 99 1015.8
20260831040220 69 346 0.0 3.0 0.24 0.01 0.01 99 1016.0
20260831034717 70 293 2.0 3.0 0.21 0.41 0.41 99 1016.2
20260831033214 69 340 1.0 9.0 0.45 0.34 0.34 99 1016.0
20260831031710 69 143 0.0 3.0 0.33 0.20 0.20 99 1016.2
20260831030208 70 285 1.0 3.0 0.14 0.13 0.13 99 1016.2
20260831024704 70 139 0.0 3.0 0.19 0.09 0.09 99 1016.3
20260831023200 70 241 2.0 4.0 0.07 0.04 0.04 98 1016.3
20260831021656 70 163 2.0 6.0 0.00 0.02 0.02 97 1016.0
20260831020153 70 180 2.0 8.0 0.02 0.02 0.02 97 1016.0
20260831014649 71 172 0.0 4.0 0.02 0.02 0.02 96 1016.1
20260831013146 71 201 0.0 6.0 0.00 0.01 0.01 95 1016.2
20260831011641 71 270 0.0 4.0 0.02 0.00 0.00 93 1016.2
20260831010140 72 325 1.0 11.0 0.00 0.00 0.00 92 1016.0
20260831004636 72 270 2.0 5.0 0.00 0.00 0.00 91 1016.0
20260831003135 72 180 0.0 5.0 0.00 0.00 0.00 90 1016.0
20260831001630 72 228 8.0 8.0 0.00 0.00 0.00 89 1015.7
20260831000128 72 235 5.0 9.0 0.00 0.00 0.00 89 1015.8
20260830234628 73 241 3.0 7.0 0.00 0.00 0.00 88 1015.5
20260830233127 73 203 2.0 5.0 0.00 0.00 0.00 88 1015.7
20260830231626 73 208 0.0 5.0 0.00 0.00 0.00 87 1015.8
20260830230121 73 229 5.0 10.0 0.00 0.00 0.00 85 1015.6
20260830224621 73 279 0.0 5.0 0.00 0.00 0.00 82 1015.8
20260830223120 74 215 1.0 5.0 0.00 0.00 0.00 80 1016.1
20260830221617 74 250 2.0 11.0 0.00 0.00 0.00 78 1015.9
20260830220113 75 176 4.0 8.0 0.00 0.00 0.00 73 1016.1
20260830214608 75 196 2.0 6.0 0.00 0.00 0.00 72 1016.2
20260830213104 76 245 4.0 6.0 0.00 0.00 0.00 71 1016.0
20260830211601 77 248 3.0 7.0 0.00 0.00 0.00 64 1016.4